Location: Goll?ig?dem
(16.6773°N, 80.7332°E)
Time: 19:06:44
(UTC+00:00)

In-Cosmos 22 Rocket - Pass Details

Date: 19 May 2025
Orbit: 790 x 885 km, 81.2° (Epoch: 23 June)

Event Time Altitude Azimuth Distance (km) Brightness Sun altitude
Exits shadow 22:55:04 - 185° (S) 2,846 6.6 -16.1°
Reaches altitude 10° 22:56:21 10° 185° (S) 2,345 6.2 -15.8°
Maximum altitude 23:01:37 89° 106° (ESE) 794 4.0 -14.7°
Drops below altitude 10° 23:06:57 10° 6° (N) 2,363 7.0 -13.6°
Sets 23:09:20 0° 6° (N) 3,303 7.8 -13.0°
